Location: Peterborough
(44.3000°N, 78.3330°W)
Time: 08:06:50
(UTC-04:00)

OTV 5 (USA 277) - Visible Passes

Search period start: 25 June 2018 00:00
Search period end: 05 July 2018 00:00
Orbit: 313 x 320 km, 54.5° (Epoch: 21 June)

Date Brightness Start Highest point End Pass type
(mag) Time Alt. Az. Time Alt. Az. Time Alt. Az.
25 Jun ? 00:27:48 10° NW 00:30:05 27° NNE 00:30:05 27° NNE visible
25 Jun ? 23:08:27 10° NNW 23:09:57 14° NNE 23:11:29 10° NE visible
26 Jun ? 00:42:03 10° NW 00:43:24 25° NW 00:43:24 25° NW visible
26 Jun ? 21:49:13 10° N 21:49:32 10° N 21:49:51 10° N visible
26 Jun ? 23:22:31 10° NNW 23:24:39 20° NNE 23:25:57 15° ENE visible
27 Jun ? 00:56:30 10° WNW 00:56:47 12° WNW 00:56:47 12° WNW visible
27 Jun ? 22:03:13 10° NNW 22:04:21 12° NNE 22:05:28 10° NE visible
27 Jun ? 23:36:41 10° NW 23:39:15 38° NNE 23:39:24 37° NE visible
28 Jun ? 22:17:15 10° NNW 22:19:05 16° NNE 22:20:55 10° ENE visible
28 Jun ? 23:51:00 10° NW 23:52:54 41° WNW 23:52:54 41° WNW visible
29 Jun ? 22:31:21 10° NW 22:33:44 27° NNE 22:35:36 13° E visible
30 Jun ? 00:05:38 10° WNW 00:06:27 16° W 00:06:27 16° W visible
30 Jun ? 22:45:35 10° NW 22:48:16 59° NE 22:49:12 33° E visible
01 Jul ? 23:00:02 10° WNW 23:02:39 48° SW 23:02:51 47° SSW visible
02 Jul ? 21:40:13 10° NW 21:42:47 37° NNE 21:45:20 10° ESE visible
02 Jul ? 23:14:57 10° W 23:16:33 18° WSW 23:16:33 18° WSW visible
03 Jul ? 21:54:32 10° NW 21:57:15 85° SW 21:59:27 14° SE visible
04 Jul ? 22:09:09 10° WNW 22:11:34 29° SW 22:13:16 15° S visible
